Overview Statistics Trail Chart Weather Telemetry Raw packets
 

This is the latest recevied weather packets stored in our database for station/object G4WLC-1. If no packets are shown the sender has not sent any weather packets the latest 10 day(s).

<< 30 31 32 33 34 35 36 >>
Time Temp. Humidity Pressure Rain* Wind** Luminosity Snow
1788451024 20.56° C 77% 1017 hPa 0 mm - - -
1788450724 20.56° C 76% 1017 hPa 0 mm - - -
1788450424 20.56° C 76% 1017.3 hPa 0 mm - - -
1788450124 21.11° C 74% 1017.1 hPa 0 mm - - -
1788449824 21.11° C 73% 1017.1 hPa 0 mm - - -
1788449524 21.67° C 74% 1017.2 hPa 0 mm - - -
1788449224 21.67° C 74% 1017 hPa 0 mm - - -
1788448924 21.11° C 73% 1017.2 hPa 0 mm - - -
1788448624 21.67° C 72% 1017 hPa 0 mm - - -
1788448324 22.22° C 72% 1017 hPa 0 mm - - -
1788448024 22.78° C 71% 1017.2 hPa 0 mm - - -
1788447724 22.22° C 72% 1017.2 hPa 0 mm - - -
1788447424 22.22° C 72% 1017.1 hPa 0 mm - - -
1788447124 22.22° C 73% 1017.2 hPa 0 mm - - -
1788446824 22.22° C 72% 1017.1 hPa 0 mm - - -
1788446524 22.22° C 72% 1017.3 hPa 0 mm - - -
1788446224 22.78° C 70% 1017.3 hPa 0 mm - - -
1788445924 22.22° C 70% 1017.4 hPa 0 mm - - -
1788445624 22.78° C 70% 1017.4 hPa 0 mm - - -
1788445324 22.78° C 72% 1017.4 hPa 0 mm - - -
1788445024 22.22° C 74% 1017.4 hPa 0 mm - - -
1788444724 22.22° C 77% 1017.7 hPa 0 mm - - -
1788444424 22.22° C 77% 1017.3 hPa 0 mm - - -
1788444124 21.67° C 79% 1017.5 hPa 0 mm - - -
1788443824 21.67° C 77% 1017.3 hPa 0 mm - - -

* Rain latest hour (hover to see other rain measurements)
** Current wind speed in m/s (hover to see current wind gust speed)